Regional Weather Roundup
Issued by NWS Sterling, VA

Home | Current Version | Previous Version | Text Only | Print | Product List | Glossary Off
Versions: 1 2 3 4 5 6 7 8 9 10 11 12 13 14 15 16 17 18 19 20 21 22 23 24 25 26 27 28 29 30 31 32 33 34 35 36 37 38 39 40 41 42 43 44 45 46 47 48 49 50

000
ASUS41 KLWX 060410
RWRLWX

REGIONAL WEATHER ROUNDUP
NATIONAL WEATHER SERVICE BALTIMORE MD/WASHINGTON DC
1200 AM EDT WED MAY 06 2015

Note: "FAIR" indicates few or no clouds below 12,000 feet
with no significant weather and/or obstructions to visibility.
 TC=TEMPERATURE CELSIUS

 * =Non NWS site. Station does not report precipitation (e.g. rain,
    snow, etc.), thunder, or fog.

DCZ001-MDZ009-015-VAZ040>042-051-053>054-060500-
WASHINGTON METRO

CITY           SKY/WX    TMP DP  RH WIND       PRES   REMARKS
WASHINGTON NAT MOCLDY    66  61  84 SW6       30.24F
DULLES         MOCLDY    65  62  90 S8        30.25S
ANDREWS AFB    PTCLDY    63  63  99 SW8       30.23S
FT BELVOIR     PTCLDY    61  61 100 CALM      30.24S FOG
QUANTICO       CLOUDY    65  61  87 W6        30.25F
COLLEGE PARK*  PTCLDY    68  61  77 CALM      30.23F
LEESBURG*      MOCLDY    64  64 100 S8        30.25F
MANASSAS*      MOCLDY    64  64 100 S3        30.25S
GAITHERSBURG*  MOCLDY    66  59  77 SW5       30.28S

$$

MDZ006>007-011-014-060500-
BALTIMORE METRO

CITY           SKY/WX    TMP DP  RH WIND       PRES   REMARKS
BWI AIRPORT    PTCLDY    66  61  84 SW6       30.21F
MD SCIENCE CTR   N/A     70  60  70 MISG      30.22F
MARTIN STATE   PTCLDY    68  64  88 SW5       30.23S
ANNAPOLIS      PTCLDY    66  60  81 SW3       30.21F
FORT MEADE*      N/A     61  59  94 SW3       30.24F

$$

MDZ012-015-019>023-060500-
MARYLAND EASTERN SHORE

CITY           SKY/WX    TMP DP  RH WIND       PRES   REMARKS
OCEAN CITY     PTCLDY    66  57  72 SW12      30.23F
SALISBURY      MOCLDY    65  59  81 S5        30.22S
BAY BRIDGE AP*   N/A    N/A N/A N/A W5        30.22F
CAMBRIDGE*     CLOUDY    68  59  73 W3        30.21F
EASTON*        CLOUDY    67  65  95 NW5       30.25F

$$

MDZ017>025-060500-
SOUTHERN MARYLAND

CITY           SKY/WX    TMP DP  RH WIND       PRES   REMARKS
PATUXENT RIVER CLOUDY    65  61  87 SW8       30.22F
ST INIGOES     MOCLDY    68  61  78 SW3       30.22F
LEONARDTOWN*   MOCLDY    64  61  88 CALM      30.24F

$$

MDZ003>005-060500-
NORTH CENTRAL MARYLAND

CITY           SKY/WX    TMP DP  RH WIND       PRES   REMARKS
FREDERICK*     MOCLDY    66  59  77 S7        30.26S
HAGERSTOWN APT PTCLDY    68  60  75 S3        30.23S
WESTMINSTER*   MOCLDY    66  59  77 SW7       30.24R

$$

MDZ501>502-060500-
WESTERN MARYLAND

CITY           SKY/WX    TMP DP  RH WIND       PRES   REMARKS
OAKLAND*       PTCLDY    63  59  88 SE6       30.31S
CUMBERLAND*    PTCLDY    68  59  73 CALM      30.27S

$$

VAZ025>031-060500-
SHENANDOAH VALLEY

CITY           SKY/WX    TMP DP  RH WIND       PRES   REMARKS
WINCHESTER*    PTCLDY    63  55  77 CALM      30.24F
FRONT ROYAL*   MOCLDY    61  61 100 CALM      30.24S
LURAY*         FAIR      61  61 100 CALM      30.26S FOG
NEW MARKET*    CLOUDY    60  60  99 CALM      30.25S
STAUNTON*      PTCLDY    61  58  88 CALM      30.28F
WAYNESBORO*    MOCLDY    66  59  78 CALM      30.28S

$$

WVZ021-048>050-054>055-060500-
EASTERN WEST VIRGINIA PANHANDLE

CITY           SKY/WX    TMP DP  RH WIND       PRES   REMARKS
MARTINSBURG    PTCLDY    66  61  84 S3        30.23S
PETERSBURG*    FOG       57  54  89 CALM      30.27R VSB 1/4

$$

VAZ036>039-050-060500-
CENTRAL FOOTHILLS

CITY           SKY/WX    TMP DP  RH WIND       PRES   REMARKS
CHARLOTTESVILL PTCLDY    66  62  87 CALM      30.26F
CULPEPER*      FOG       62  62  99 CALM      30.26F VSB 3/4
ORANGE*        MOCLDY    64  63  94 CALM      30.28S FOG
GORDONSVILLE*  FOG       62  61  99 CALM      30.26S VSB 1/4
WARRENTON*     CLOUDY    64  64 100 CALM      30.25F

$$

VAZ055>057-060500-
NORTH AND CENTRAL PIEDMONT

CITY           SKY/WX    TMP DP  RH WIND       PRES   REMARKS
FREDERICKSBRG* MOCLDY    67  67 100 CALM      30.24F FOG
STAFFORD*      CLOUDY    64  32  30 CALM      30.29F HAZE

$$

NCZ024-NYZ072-PAZ021-071-VAZ022-071-060500-
OTHER REGIONAL OBSERVATIONS

CITY           SKY/WX    TMP DP  RH WIND       PRES   REMARKS
NEW YORK CITY  CLOUDY    73  52  47 CALM      30.21R
PHILADELPHIA   MOCLDY    73  60  63 SW10      30.21S
PITTSBURGH     PTCLDY    63  61  93 CALM      30.23S
ROANOKE        CLOUDY    66  56  70 CALM      30.27S
RICHMOND       MOCLDY    67  64  90 S3        30.26F
RALEIGH        MOCLDY    66  51  58 S5        30.30R

$$

ANZ530>537-060500-
MARINE OBSERVATIONS

STATION/POSITION TIME  TEMP    WIND        PRES
                       AIR SEA DIR/SP/G
                 (UTC) (F)     (DEG/KT/KT) (MB)
THOMAS PT LIGHT  0400   66 61  240/ 11/ 11 1023.7F
BALT KEY BRIDGE  0300   68     240/  6/  7 1023.2F
COVE POINT       0300   66     250/  8/ 10 1024.4F
LEWISETTA        0300   70 68              1023.8F
SOLOMONS ISLAND  0300      64                N/A
PINEY POINT      0300          270/  3/  4   N/A

$$



USA.gov is the U.S. government's official web portal to all federal, state and local government web resources and services.